Orbital Elements at Epoch 2459000.5 (2020-May-31.0) TDB
Reference: JPL 11 (heliocentric ecliptic J2000)
Element | Value | Uncertainty (1-sigma) | Units |
e | .3249437853512794 | 6.0384e-05 | |
a | 1.362827011915099 | 0.00010765 | au |
q | .9199848438844338 | 9.6281e-06 | au |
i | 6.038434405217864 | 0.00097016 | deg |
node | 215.0217944420311 | 2.5771e-05 | deg |
peri | 225.4745969072336 | 0.00024038 | deg |
M | 243.9941130895432 | 0.014603 | deg |
tp | 2459187.756565754375 (2020-Dec-04.25656575) | 0.0013864 | TDB |
period | 581.1115751704018 1.59 | 0.06885 0.0001885 | d yr |
n | .6195023733513407 | 7.3399e-05 | deg/d |
Q | 1.805669179945764 | 0.00014262 | au |
|
| | Orbit Determination Parameters
Additional Information
|